Walnut Ridge, AR

2:58 PM CDT on August 23, 2017 (GMT -0500)
Walnut Ridge Regional

Weather History for KARG - March, 2012

Change the Weather History Date:

Tuesday, March 20, 2012

  Actual Average Record
Temperature  
Mean Temperature 70 °F -  
Max Temperature 77 °F 57 °F 82 °F (2017)
Min Temperature 64 °F 39 °F 30 °F (2013)
Cooling Degree Days 6    
Growing Degree Days 20 (Base 50)    
Moisture  
Dew Point 59 °F    
Average Humidity 70    
Maximum Humidity 83    
Minimum Humidity 53    
Precipitation  
Precipitation 0.00 in - - ()
Sea Level Pressure  
Sea Level Pressure 29.89 in    
Wind  
Wind Speed 14 mph (SE)    
Max Wind Speed 24 mph    
Max Gust Speed 33 mph    
Visibility 10 miles    
Events      
Averages and records for this station are not official NWS values.
T = Trace of Precipitation, MM = Missing Value Source: NWS Daily Summary

Daily Weather History Graph

Daily Weather History Graph

Search for Another Location

Airport or City:

Trip Planner

Search our weather history database for the weather conditions in past years. The results will help you decide how hot, cold, wet, or windy it might be!

Date:

Astronomy

Mar. 20, 2012 Rise Set
Actual Time 7:06 AM CDT 7:15 PM CDT
Civil Twilight 6:40 AM CDT 7:41 PM CDT
Nautical Twilight 6:11 AM CDT 8:11 PM CDT
Astronomical Twilight 5:40 AM CDT 8:41 PM CDT
Moon 5:46 AM CDT (3/20) 5:45 PM CDT (3/20)
Length of Visible Light 13h 00m
Length of Day
12h 09m
Waning Crescent, 4% of the Moon is Illuminated
Mar 20
Waning Crescent
Mar 22
New
Mar 30
First Quarter
Apr 6
Full
Apr 13
Last Quarter

Hourly Weather History & Observations

Time (CDT) Temp. Dew Point Humidity Pressure Visibility Wind Dir Wind Speed Gust Speed Precip Events Conditions
12:15 AM 66.2 °F 57.2 °F 73% 29.92 in 10.0 mi SE 11.5 mph - N/A   Clear
12:35 AM 68.0 °F 57.2 °F 68% 29.92 in 10.0 mi SE 13.8 mph - N/A   Clear
12:55 AM 66.2 °F 57.2 °F 73% 29.91 in 10.0 mi SE 15.0 mph - N/A   Clear
1:15 AM 68.0 °F 57.2 °F 68% 29.91 in 10.0 mi SE 12.7 mph - N/A   Clear
1:35 AM 66.2 °F 57.2 °F 73% 29.91 in 10.0 mi SE 12.7 mph - N/A   Clear
1:55 AM 66.2 °F 59.0 °F 78% 29.92 in 10.0 mi SSE 11.5 mph - N/A   Clear
2:15 AM 66.2 °F 59.0 °F 78% 29.91 in 10.0 mi SE 12.7 mph - N/A   Clear
2:35 AM 66.2 °F 59.0 °F 78% 29.91 in 10.0 mi SSE 12.7 mph - N/A   Clear
2:55 AM 64.4 °F 59.0 °F 83% 29.91 in 10.0 mi SSE 11.5 mph - N/A   Clear
3:15 AM 66.2 °F 59.0 °F 78% 29.90 in 10.0 mi SSE 11.5 mph - N/A   Clear
3:35 AM 66.2 °F 57.2 °F 73% 29.89 in 10.0 mi SE 15.0 mph - N/A   Clear
3:55 AM 66.2 °F 57.2 °F 73% 29.89 in 10.0 mi SE 11.5 mph - N/A   Clear
4:15 AM 64.4 °F 57.2 °F 77% 29.88 in 10.0 mi SE 12.7 mph - N/A   Clear
4:35 AM 64.4 °F 57.2 °F 77% 29.88 in 10.0 mi SE 11.5 mph - N/A   Clear
4:55 AM 64.4 °F 57.2 °F 77% 29.88 in 10.0 mi SE 12.7 mph - N/A   Clear
5:15 AM 64.4 °F 57.2 °F 77% 29.88 in 10.0 mi SE 12.7 mph - N/A   Clear
5:35 AM 64.4 °F 57.2 °F 77% 29.88 in 10.0 mi SE 12.7 mph - N/A   Clear
5:55 AM 64.4 °F 57.2 °F 77% 29.87 in 10.0 mi SE 13.8 mph - N/A   Clear
6:15 AM 64.4 °F 57.2 °F 77% 29.87 in 10.0 mi SE 13.8 mph - N/A   Clear
6:35 AM 64.4 °F 57.2 °F 77% 29.88 in 10.0 mi SE 12.7 mph - N/A   Clear
6:55 AM 64.4 °F 57.2 °F 77% 29.88 in 10.0 mi SE 11.5 mph - N/A   Clear
7:15 AM 64.4 °F 57.2 °F 77% 29.89 in 10.0 mi SE 12.7 mph - N/A   Clear
7:35 AM 64.4 °F 57.2 °F 77% 29.90 in 10.0 mi SE 12.7 mph - N/A   Clear
7:55 AM 64.4 °F 57.2 °F 77% 29.91 in 10.0 mi SE 12.7 mph - N/A   Clear
8:15 AM 64.4 °F 59.0 °F 83% 29.92 in 10.0 mi SE 11.5 mph - N/A   Clear
8:35 AM 66.2 °F 57.2 °F 73% 29.92 in 10.0 mi SE 15.0 mph - N/A   Clear
8:55 AM 66.2 °F 59.0 °F 78% 29.93 in 10.0 mi SE 15.0 mph - N/A   Clear
9:15 AM 68.0 °F 59.0 °F 73% 29.94 in 10.0 mi SE 16.1 mph - N/A   Clear
9:35 AM 69.8 °F 60.8 °F 73% 29.94 in 10.0 mi SE 12.7 mph 19.6 mph N/A   Clear
9:55 AM 69.8 °F 60.8 °F 73% 29.95 in 10.0 mi SE 17.3 mph - N/A   Partly Cloudy
10:15 AM 69.8 °F 60.8 °F 73% 29.94 in 10.0 mi SE 17.3 mph 21.9 mph N/A   Mostly Cloudy
10:35 AM 69.8 °F 60.8 °F 73% 29.95 in 10.0 mi SSE 21.9 mph 28.8 mph N/A   Mostly Cloudy
10:55 AM 71.6 °F 62.6 °F 73% 29.94 in 10.0 mi SSE 20.7 mph 27.6 mph N/A   Scattered Clouds
11:15 AM 71.6 °F 62.6 °F 73% 29.94 in 10.0 mi SSE 19.6 mph 26.5 mph N/A   Scattered Clouds
11:35 AM 73.4 °F 62.6 °F 69% 29.94 in 10.0 mi SSE 20.7 mph 27.6 mph N/A   Partly Cloudy
11:55 AM 73.4 °F 62.6 °F 69% 29.93 in 10.0 mi SSE 24.2 mph 28.8 mph N/A   Partly Cloudy
12:15 PM 73.4 °F 60.8 °F 65% 29.93 in 10.0 mi SSE 24.2 mph 31.1 mph N/A   Mostly Cloudy
12:35 PM 75.2 °F 62.6 °F 65% 29.94 in 10.0 mi South 21.9 mph 28.8 mph N/A   Scattered Clouds
1:15 PM 75.2 °F 62.6 °F 65% 29.91 in 10.0 mi SSE 20.7 mph 29.9 mph N/A   Scattered Clouds
1:35 PM 75.2 °F 62.6 °F 65% 29.90 in 10.0 mi SSE 23.0 mph 27.6 mph N/A   Mostly Cloudy
1:55 PM 75.2 °F 62.6 °F 65% 29.90 in 10.0 mi South 21.9 mph 26.5 mph N/A   Mostly Cloudy
2:15 PM 75.2 °F 62.6 °F 65% 29.89 in 10.0 mi SSE 19.6 mph 25.3 mph N/A   Mostly Cloudy
2:35 PM 75.2 °F 62.6 °F 65% 29.88 in 10.0 mi SE 23.0 mph 26.5 mph N/A   Mostly Cloudy
2:55 PM 75.2 °F 60.8 °F 61% 29.88 in 10.0 mi SE 23.0 mph 28.8 mph N/A   Mostly Cloudy
3:15 PM 75.2 °F 62.6 °F 65% 29.87 in 10.0 mi SSE 21.9 mph 25.3 mph N/A   Scattered Clouds
3:35 PM 77.0 °F 60.8 °F 57% 29.87 in 10.0 mi SE 24.2 mph 33.4 mph N/A   Clear
3:55 PM 77.0 °F 60.8 °F 57% 29.86 in 10.0 mi SSE 18.4 mph 28.8 mph N/A   Clear
4:15 PM 77.0 °F 59.0 °F 54% 29.84 in 10.0 mi SE 19.6 mph 26.5 mph N/A   Clear
4:35 PM 77.0 °F 59.0 °F 54% 29.84 in 10.0 mi SE 19.6 mph 23.0 mph N/A   Clear
4:55 PM 75.2 °F 59.0 °F 57% 29.84 in 10.0 mi SE 17.3 mph - N/A   Partly Cloudy
5:15 PM 75.2 °F 57.2 °F 53% 29.83 in 10.0 mi SE 15.0 mph - N/A   Mostly Cloudy
5:35 PM 75.2 °F 59.0 °F 57% 29.83 in 10.0 mi SE 12.7 mph - N/A   Mostly Cloudy
5:55 PM 75.2 °F 59.0 °F 57% 29.83 in 10.0 mi SE 9.2 mph - N/A   Mostly Cloudy
6:35 PM 73.4 °F 60.8 °F 65% 29.83 in 10.0 mi SE 9.2 mph - N/A   Mostly Cloudy
6:55 PM 73.4 °F 59.0 °F 61% 29.84 in 10.0 mi SE 12.7 mph - N/A   Mostly Cloudy
7:15 PM 75.2 °F 57.2 °F 53% 29.84 in 10.0 mi SSE 11.5 mph - N/A   Scattered Clouds
7:35 PM 71.6 °F 59.0 °F 64% 29.85 in 10.0 mi South 10.4 mph - N/A   Scattered Clouds
7:55 PM 71.6 °F 60.8 °F 69% 29.86 in 10.0 mi SSE 8.1 mph - N/A   Scattered Clouds
8:15 PM 71.6 °F 59.0 °F 64% 29.87 in 10.0 mi South 9.2 mph - N/A   Scattered Clouds
8:35 PM 71.6 °F 60.8 °F 69% 29.88 in 10.0 mi South 8.1 mph - N/A   Mostly Cloudy
8:55 PM 71.6 °F 59.0 °F 64% 29.87 in 10.0 mi SSE 9.2 mph - N/A   Scattered Clouds
9:15 PM 69.8 °F 59.0 °F 68% 29.87 in 5.0 mi SSE 5.8 mph - N/A   Scattered Clouds
9:35 PM 69.8 °F 60.8 °F 73% 29.88 in 10.0 mi ESE 5.8 mph - N/A   Partly Cloudy
9:55 PM 68.0 °F 59.0 °F 73% 29.89 in 10.0 mi ESE 6.9 mph - N/A   Partly Cloudy
10:15 PM 69.8 °F 59.0 °F 68% 29.89 in 10.0 mi SE 9.2 mph - N/A   Clear
10:35 PM 68.0 °F 60.8 °F 78% 29.89 in 10.0 mi SE 9.2 mph - N/A   Clear
10:55 PM 66.2 °F 60.8 °F 83% 29.90 in 10.0 mi SE 5.8 mph - N/A   Clear
11:15 PM 66.2 °F 60.8 °F 83% 29.91 in 10.0 mi SSE 4.6 mph - N/A   Clear
11:35 PM 66.2 °F 60.8 °F 83% 29.91 in 10.0 mi SE 6.9 mph - N/A   Clear